• In Schweiz
  • Länderverzeichnis
  • Für 7 Tage
  • Wassertemperatur
  • Satellitenkarten
  • Wetterkarte
  • Widgets
  • user-avatar
    Anmelden

    Stündliche Wetter Yarnovo

    Heute, 26 September, Mittwoch

    Zeit Temperatur Niederschläge Wind Luftdruck Luftfeuchtigkeit
    00:00 +7°C° 0 mm 4 m/S 750 mmHg 78%
    01:00 +6°C° 0 mm 4 m/S 750 mmHg 79%
    02:00 +6°C° 0 mm 4 m/S 751 mmHg 81%
    03:00 +6°C° 0 mm 4 m/S 752 mmHg 82%
    04:00 +5°C° 0 mm 4 m/S 752 mmHg 84%
    05:00 +5°C° 0 mm 4 m/S 753 mmHg 87%
    06:00 +4°C° 0 mm 3 m/S 753 mmHg 89%
    07:00 +5°C° 0 mm 4 m/S 754 mmHg 84%
    08:00 +6°C° 0 mm 4 m/S 755 mmHg 79%
    09:00 +7°C° 0 mm 4 m/S 755 mmHg 74%
    10:00 +8°C° 0 mm 4 m/S 756 mmHg 68%
    11:00 +10°C° 0 mm 4 m/S 756 mmHg 62%
    12:00 +11°C° 0 mm 4 m/S 756 mmHg 56%
    13:00 +11°C° 0 mm 4 m/S 757 mmHg 55%
    14:00 +11°C° 0 mm 4 m/S 757 mmHg 54%
    15:00 +11°C° 0 mm 4 m/S 757 mmHg 52%
    16:00 +10°C° 0 mm 3 m/S 757 mmHg 55%
    17:00 +9°C° 0 mm 3 m/S 757 mmHg 58%
    18:00 +8°C° 0 mm 2 m/S 757 mmHg 61%
    19:00 +7°C° 0 mm 2 m/S 757 mmHg 64%
    20:00 +5°C° 0 mm 3 m/S 757 mmHg 67%
    21:00 +5°C° 0 mm 3 m/S 757 mmHg 69%
    22:00 +5°C° 0 mm 3 m/S 756 mmHg 70%
    23:00 +4°C° 0 mm 4 m/S 756 mmHg 70%

    Morgen, 27 September, Donnerstag

    Zeit Temperatur Niederschläge Wind Luftdruck Luftfeuchtigkeit
    00:00 +4°C° 0 mm 4 m/S 755 mmHg 70%
    01:00 +5°C° 0 mm 5 m/S 754 mmHg 68%
    02:00 +5°C° 0 mm 5 m/S 754 mmHg 67%
    03:00 +4°C° 0 mm 6 m/S 753 mmHg 65%
    04:00 +5°C° 0 mm 7 m/S 752 mmHg 65%
    05:00 +5°C° 0 mm 7 m/S 751 mmHg 64%
    06:00 +5°C° 0 mm 8 m/S 750 mmHg 63%
    07:00 +5°C° 1 mm 8 m/S 749 mmHg 68%
    08:00 +3°C° 1 mm 9 m/S 748 mmHg 72%
    09:00 +3°C° 1 mm 9 m/S 747 mmHg 77%
    10:00 +3°C° 1.4 mm 9 m/S 747 mmHg 79%
    11:00 +5°C° 1.4 mm 9 m/S 746 mmHg 81%
    12:00 +5°C° 1.4 mm 9 m/S 746 mmHg 84%
    13:00 +5°C° 0.7 mm 8 m/S 745 mmHg 84%
    14:00 +6°C° 0.7 mm 8 m/S 745 mmHg 84%
    15:00 +8°C° 0.7 mm 7 m/S 745 mmHg 84%
    16:00 +8°C° 0.3 mm 7 m/S 745 mmHg 82%
    17:00 +8°C° 0.3 mm 6 m/S 745 mmHg 80%
    18:00 +8°C° 0.3 mm 5 m/S 746 mmHg 78%
    19:00 +7°C° 0 mm 5 m/S 746 mmHg 79%
    20:00 +7°C° 0 mm 5 m/S 747 mmHg 81%
    21:00 +6°C° 0 mm 4 m/S 747 mmHg 82%
    22:00 +6°C° 0 mm 4 m/S 747 mmHg 83%
    23:00 +6°C° 0 mm 4 m/S 748 mmHg 83%

    übermorgen, 28 September, Freitag

    Zeit Temperatur Niederschläge Wind Luftdruck Luftfeuchtigkeit
    00:00 +6°C° 0 mm 4 m/S 748 mmHg 84%
    01:00 +5°C° 0 mm 4 m/S 748 mmHg 86%
    02:00 +5°C° 0 mm 5 m/S 748 mmHg 87%
    03:00 +5°C° 0 mm 5 m/S 748 mmHg 88%
    04:00 +5°C° 0 mm 5 m/S 748 mmHg 89%
    05:00 +5°C° 0 mm 5 m/S 748 mmHg 90%
    06:00 +5°C° 0 mm 5 m/S 747 mmHg 91%
    07:00 +7°C° 0 mm 6 m/S 747 mmHg 85%
    08:00 +8°C° 0 mm 7 m/S 746 mmHg 79%
    09:00 +9°C° 0 mm 8 m/S 746 mmHg 73%
    10:00 +11°C° 0 mm 9 m/S 745 mmHg 71%
    11:00 +12°C° 0 mm 9 m/S 745 mmHg 69%
    12:00 +13°C° 0 mm 10 m/S 744 mmHg 67%
    13:00 +13°C° 0 mm 10 m/S 744 mmHg 69%
    14:00 +13°C° 0 mm 9 m/S 744 mmHg 72%
    15:00 +12°C° 0 mm 9 m/S 743 mmHg 74%
    16:00 +13°C° 0.1 mm 9 m/S 743 mmHg 76%
    17:00 +13°C° 0.1 mm 9 m/S 743 mmHg 77%
    18:00 +13°C° 0.1 mm 9 m/S 743 mmHg 78%
    19:00 +12°C° 0.5 mm 8 m/S 744 mmHg 80%
    20:00 +11°C° 0.5 mm 7 m/S 745 mmHg 82%
    21:00 +10°C° 0.5 mm 6 m/S 746 mmHg 83%
    22:00 +8°C° 0 mm 5 m/S 747 mmHg 84%
    23:00 +7°C° 0 mm 4 m/S 748 mmHg 85%

    29 September, Samstag

    Zeit Temperatur Niederschläge Wind Luftdruck Luftfeuchtigkeit
    00:00 +5°C° 0 mm 3 m/S 749 mmHg 85%
    01:00 +4°C° 0 mm 3 m/S 749 mmHg 87%
    02:00 +4°C° 0 mm 3 m/S 750 mmHg 88%
    03:00 +4°C° 0 mm 2 m/S 751 mmHg 89%
    04:00 +4°C° 0 mm 2 m/S 751 mmHg 89%
    05:00 +3°C° 0 mm 2 m/S 752 mmHg 90%
    06:00 +3°C° 0 mm 2 m/S 753 mmHg 90%
    07:00 +5°C° 0 mm 2 m/S 753 mmHg 84%
    08:00 +5°C° 0 mm 3 m/S 754 mmHg 78%
    09:00 +7°C° 0 mm 3 m/S 754 mmHg 72%
    10:00 +9°C° 0 mm 3 m/S 754 mmHg 66%
    11:00 +10°C° 0 mm 3 m/S 755 mmHg 60%
    12:00 +11°C° 0 mm 4 m/S 755 mmHg 54%
    13:00 +11°C° 0 mm 3 m/S 755 mmHg 53%
    14:00 +12°C° 0 mm 3 m/S 755 mmHg 51%
    15:00 +12°C° 0 mm 3 m/S 755 mmHg 50%
    16:00 +11°C° 0 mm 3 m/S 755 mmHg 53%
    17:00 +10°C° 0 mm 2 m/S 755 mmHg 57%
    18:00 +10°C° 0 mm 1 m/S 756 mmHg 61%
    19:00 +9°C° 0 mm 1 m/S 756 mmHg 61%
    20:00 +9°C° 0 mm 1 m/S 756 mmHg 60%
    21:00 +8°C° 0 mm 1 m/S 757 mmHg 60%
    22:00 +8°C° 0 mm 1 m/S 757 mmHg 60%
    23:00 +7°C° 0 mm 1 m/S 757 mmHg 60%

    30 September, Sonntag

    Zeit Temperatur Niederschläge Wind Luftdruck Luftfeuchtigkeit
    00:00 +7°C° 0 mm 1 m/S 757 mmHg 60%
    01:00 +6°C° 0 mm 1 m/S 758 mmHg 62%
    02:00 +5°C° 0 mm 1 m/S 758 mmHg 64%
    03:00 +4°C° 0 mm 1 m/S 758 mmHg 67%
    04:00 +4°C° 0 mm 1 m/S 758 mmHg 68%
    05:00 +4°C° 0 mm 1 m/S 759 mmHg 69%
    06:00 +2°C° 0 mm 0 m/S 759 mmHg 71%
    07:00 +5°C° 0 mm 1 m/S 759 mmHg 65%
    08:00 +7°C° 0 mm 1 m/S 759 mmHg 60%
    09:00 +8°C° 0 mm 1 m/S 760 mmHg 55%
    10:00 +9°C° 0 mm 1 m/S 760 mmHg 51%
    11:00 +11°C° 0 mm 1 m/S 760 mmHg 47%
    12:00 +12°C° 0 mm 2 m/S 760 mmHg 43%
    13:00 +12°C° 0 mm 2 m/S 759 mmHg 42%
    14:00 +12°C° 0 mm 2 m/S 759 mmHg 42%
    15:00 +12°C° 0 mm 2 m/S 759 mmHg 41%
    16:00 +10°C° 0 mm 2 m/S 759 mmHg 46%
    17:00 +10°C° 0 mm 1 m/S 759 mmHg 51%
    18:00 +8°C° 0 mm 1 m/S 759 mmHg 55%
    19:00 +8°C° 0 mm 1 m/S 759 mmHg 57%
    20:00 +7°C° 0 mm 1 m/S 759 mmHg 58%
    21:00 +7°C° 0 mm 1 m/S 759 mmHg 60%
    22:00 +5°C° 0 mm 2 m/S 759 mmHg 61%
    23:00 +5°C° 0 mm 2 m/S 759 mmHg 63%

    1 Oktober, Montag

    Zeit Temperatur Niederschläge Wind Luftdruck Luftfeuchtigkeit
    00:00 +5°C° 0 mm 2 m/S 759 mmHg 64%
    01:00 +5°C° 0 mm 2 m/S 759 mmHg 66%
    02:00 +5°C° 0 mm 2 m/S 758 mmHg 68%
    03:00 +4°C° 0 mm 2 m/S 758 mmHg 69%
    04:00 +4°C° 0 mm 2 m/S 758 mmHg 72%
    05:00 +4°C° 0 mm 2 m/S 758 mmHg 75%
    06:00 +4°C° 0 mm 2 m/S 758 mmHg 77%
    07:00 +4°C° 0 mm 3 m/S 758 mmHg 74%
    08:00 +7°C° 0 mm 3 m/S 758 mmHg 70%
    09:00 +9°C° 0 mm 3 m/S 758 mmHg 66%
    10:00 +10°C° 0 mm 4 m/S 758 mmHg 61%
    11:00 +11°C° 0 mm 4 m/S 758 mmHg 55%
    12:00 +13°C° 0 mm 5 m/S 758 mmHg 50%
    13:00 +13°C° 0 mm 5 m/S 757 mmHg 49%
    14:00 +13°C° 0 mm 5 m/S 757 mmHg 48%
    15:00 +14°C° 0 mm 5 m/S 757 mmHg 47%
    16:00 +12°C° 0 mm 4 m/S 757 mmHg 53%
    17:00 +11°C° 0 mm 3 m/S 757 mmHg 59%
    18:00 +9°C° 0 mm 2 m/S 757 mmHg 65%
    19:00 +9°C° 0 mm 2 m/S 757 mmHg 67%
    20:00 +8°C° 0 mm 2 m/S 757 mmHg 70%
    21:00 +8°C° 0 mm 2 m/S 757 mmHg 72%
    22:00 +7°C° 0 mm 2 m/S 757 mmHg 74%
    23:00 +7°C° 0 mm 2 m/S 757 mmHg 75%
    Mehr zeigen